[[{"header":{"parameterUnit":"m.s-1","parameterCategory":1,"la1":30.2991,"la2":30.254,"lo1":-89.0895,"lo2":-89.0444,"dy":0.0017,"dx":0.0017,"nx":28,"ny":28,"refTime":"2024-05-10T09:00:00:Z","depth":0,"parameterNumber":2,"parameterNumberName":"U-component_of_WINDS"},"data":[0,0,0,0,0,0,0,0,0,0,0,0,0,0,0,0,0,0,0,0,0,0,0,0,0,0,0,0,0,0,0,0,0,0,0,0,0,0,0,0,0,0,0,0,0,0,0,0,0,0,0,0,0,0,0,0,0,0,-0.9742,-0.9741,0,-0.9654,-0.9653,-0.9652,-0.9585,-0.9585,-0.9584,-0.9583,-0.9492,-0.949,-0.9488,0,0,0,0,0,0,0,0,0,0,0,0,0,-0.9851,-0.985,-0.9742,-0.9741,-0.974,-0.9654,-0.9653,-0.9652,-0.9585,-0.9584,-0.9584,-0.9583,-0.9493,-0.949,-0.9488,0,0,0,0,0,0,0,0,0,0,0,0,0,-0.9788,-0.9849,-0.9743,-0.9697,-0.9692,-0.9655,-0.9653,-0.9652,-0.9585,-0.9584,-0.9584,-0.9583,-0.9493,-0.9491,-0.9488,-0.9489,0,0,-0.9479,-0.9478,0,0,0,0,0,0,0,0,-0.9792,-0.9784,-0.9704,-0.97,-0.9694,-0.963,-0.9658,-0.9597,-0.9586,-0.9626,-0.9583,-0.9582,-0.9538,-0.9532,-0.9517,-0.9485,-0.9481,-0.9479,-0.9477,-0.9476,-0.9475,0,0,0,0,0,0,0,-0.9796,-0.9787,-0.9707,-0.9703,-0.9697,-0.968,-0.967,-0.9646,-0.9588,-0.9622,-0.9617,-0.9608,-0.9535,-0.952,-0.9515,-0.948,-0.9479,-0.9477,-0.9475,-0.9474,-0.9444,-0.9445,0,0,0,0,0,0,-0.9808,-0.9791,-0.971,-0.9705,-0.9742,-0.9679,-0.9667,-0.9651,-0.9588,-0.9578,-0.9608,-0.9605,-0.9525,-0.9518,-0.9511,-0.9509,-0.9476,-0.9474,-0.9472,-0.9443,-0.9444,-0.9445,0,0,0,0,0,0,-0.981,-0.9801,-0.9714,-0.9747,-0.9734,-0.9678,-0.966,-0.965,-0.9635,-0.9578,-0.9567,-0.9604,-0.9524,-0.9515,-0.9495,-0.9505,-0.9472,-0.947,-0.9442,-0.9443,-0.9444,-0.9504,0,0,0,0,0,0,-0.9814,-0.9803,-0.9803,-0.9747,-0.9733,-0.97,-0.9661,-0.9649,-0.963,-0.9625,-0.9571,-0.9561,-0.9523,-0.95,-0.9493,-0.95,-0.9468,-0.9441,-0.9442,-0.9444,-0.9501,-0.9508,-0.9513,0,0,0,0,0,-0.9818,-0.9823,-0.9803,-0.9794,-0.9732,-0.9701,-0.9692,-0.9649,-0.9631,-0.9631,-0.9595,-0.9563,-0.9505,-0.9498,-0.949,-0.9497,-0.944,-0.9442,-0.9444,-0.9499,-0.9506,-0.9513,0,0,0,0,0,0,-0.9881,-0.9815,-0.9792,-0.978,-0.9746,-0.9689,-0.9688,-0.9658,-0.9629,-0.9625,-0.9572,-0.956,-0.9546,-0.9519,-0.9513,-0.9495,-0.9468,-0.9469,-0.9513,-0.952,-0.9526,-0.9533,-0.9465,0,0,0,0,0,-0.9893,-0.9874,-0.9817,-0.9811,-0.9796,-0.9745,-0.9729,-0.9699,-0.9662,-0.9648,-0.9609,-0.9575,-0.9548,-0.9532,-0.9505,-0.9497,-0.9484,-0.9497,-0.9503,-0.9508,-0.9509,-0.9503,-0.9508,-0.9451,-0.9451,-0.9451,0,0,-0.9919,-0.988,-0.9871,-0.9823,-0.9793,-0.9774,-0.9733,-0.9714,-0.9699,-0.9644,-0.9624,-0.9594,-0.9552,-0.9538,-0.953,-0.9515,-0.9522,-0.9511,-0.9515,-0.9513,-0.9506,-0.9511,-0.9516,-0.9453,-0.9452,-0.9452,0,0,-0.9955,-0.9924,-0.9916,-0.9888,-0.9844,-0.981,-0.9808,-0.9755,-0.9734,-0.9712,-0.9671,-0.9652,-0.9608,-0.9579,-0.9559,-0.9585,-0.9555,-0.9577,-0.9608,-0.9603,-0.9607,-0.9611,-0.962,-0.9624,-0.9579,-0.9579,-0.9579,0,-0.9993,-0.9962,-0.9916,-0.9899,-0.9879,-0.9829,-0.982,-0.9794,-0.9744,-0.9731,-0.9715,-0.9659,-0.9627,-0.9606,-0.9612,-0.9597,-0.9593,-0.9584,-0.961,-0.9613,-0.9616,-0.9625,-0.9629,-0.9582,-0.9581,-0.9581,-0.9581,0,-1.001,-0.999,-0.9988,-0.9941,-0.9921,-0.9908,-0.986,-0.9845,-0.9816,-0.9783,-0.9762,-0.9721,-0.9685,-0.9678,-0.9649,-0.9652,-0.9645,-0.962,-0.9593,-0.9626,-0.9633,-0.9636,-0.9586,-0.9585,-0.9584,-0.9583,0,0,-1.0085,-1.0012,-1.0012,-0.999,-0.9938,-0.9921,-0.9906,-0.9871,-0.9859,-0.9826,-0.9812,-0.9776,-0.9753,-0.973,-0.9698,-0.9693,-0.9717,-0.9669,-0.9667,-0.968,-0.9718,-0.9737,-0.9742,-0.9696,-0.9696,-0.9696,-0.9722,0,-1.0113,-1.0085,-1.0042,-1.0027,-1.0008,-0.9959,-0.9946,-0.9912,-0.9882,-0.986,-0.9826,-0.9801,-0.9773,-0.9759,-0.9752,-0.9715,-0.9724,-0.9713,-0.9682,-0.9682,-0.9696,-0.9745,-0.9765,-0.9791,-0.9724,-0.9725,-0.9725,0,-1.0143,-1.0113,-1.0097,-1.0046,-1.0036,-1.0025,-0.999,-0.997,-0.9931,-0.9908,-0.9883,-0.9848,-0.9829,-0.9804,-0.9778,-0.9772,-0.9757,-0.9737,-0.9737,-0.9733,-0.9706,-0.9743,-0.9798,-0.9803,-0.9729,-0.9728,-0.9728,0,-1.02,-1.0155,-1.0139,-1.0122,-1.0062,-1.0056,-1.0031,-0.999,-0.9972,-0.9941,-0.9928,-0.9895,-0.9877,-0.9852,-0.9809,-0.9795,-0.9788,-0.9759,-0.9769,-0.977,-0.977,-0.9771,-0.9825,-0.976,-0.976,-0.976,-0.9759,0,-1.0237,-1.0229,-1.0164,-1.0155,-1.0144,-1.0095,-1.0085,-1.0056,-1.002,-1.0004,-0.9959,-0.9945,-0.9888,-0.9867,-0.9833,-0.9816,-0.9808,-0.979,-0.9781,-0.9794,-0.9797,-0.9784,-0.9782,-0.9761,-0.976,-0.976,-0.976,0,-1.0299,-1.0255,-1.0235,-1.018,-1.0166,-1.0161,-1.0114,-1.0102,-1.0069,-1.0048,-1.0041,-0.9988,-0.9961,-0.9915,-0.9874,-0.9851,-0.9842,-0.9826,-0.9855,-0.985,-0.9863,-0.9863,-0.9911,-0.9915,-0.9847,-0.9848,-0.9849,0,-1.0326,-1.0319,-1.0263,-1.0249,-1.0226,-1.0204,-1.0185,-1.0136,-1.0118,-1.0073,-1.0067,-1.0036,-1.0009,-0.9967,-0.9925,-0.9894,-0.9878,-0.9897,-0.9873,-0.9887,-0.9879,-0.988,-0.9879,-0.9903,-0.9904,-0.9905,-0.9905,0,-1.0379,-1.0358,-1.0333,-1.03,-1.0279,-1.025,-1.022,-1.0211,-1.0155,-1.0137,-1.0109,-1.0088,-1.0046,-1.0016,-0.9979,-0.9952,-0.992,-0.9913,-0.9914,-0.9928,-0.9945,-0.9936,-0.9871,-0.9912,-0.9912,-0.9911,-0.9911,-0.991,-1.0425,-1.0416,-1.0376,-1.0349,-1.0321,-1.0293,-1.028,-1.0245,-1.0221,-1.0183,-1.0156,-1.013,-1.009,-1.0036,-1.0012,-0.999,-0.9975,-0.9976,-0.9977,-0.9978,-0.9983,-0.9948,-0.9983,-0.9983,-0.9982,-0.9982,-0.9982,0,-1.0476,-1.0447,-1.0423,-1.0382,-1.0361,-1.0332,-1.0297,-1.0281,-1.0259,-1.0225,-1.0199,-1.0167,-1.0137,-1.0093,-1.006,-1.0051,-1.0036,-1.0044,-1.0045,-1.0039,-0.9998,-1.0001,-1.0058,-1.0058,-1.0058,-1.0058,-1.0058,-1.0058,-1.05,-1.0484,-1.0458,-1.0427,-1.0398,-1.0373,-1.0355,-1.0329,-1.0302,-1.0268,-1.0243,-1.0215,-1.0176,-1.014,-1.0112,-1.01,-1.009,-1.0104,-1.0087,-1.0049,-1.0042,-1.0036,-1.0038,-1.0102,-1.0102,-1.013,-1.013,-1.013]},{"header":{"parameterUnit":"m.s-1","parameterCategory":1,"la1":30.2991,"la2":30.254,"lo1":-89.0895,"lo2":-89.0444,"dy":0.0017,"dx":0.0017,"nx":28,"ny":28,"refTime":"2024-05-10T09:00:00:Z","depth":0,"parameterNumber":3,"parameterNumberName":"V-component_of_WINDS"},"data":[0,0,0,0,0,0,0,0,0,0,0,0,0,0,0,0,0,0,0,0,0,0,0,0,0,0,0,0,0,0,0,0,0,0,0,0,0,0,0,0,0,0,0,0,0,0,0,0,0,0,0,0,0,0,0,0,0,0,0.1895,0.1894,0,0.1781,0.1779,0.1778,0.1705,0.1704,0.1704,0.1704,0.1585,0.1582,0.158,0,0,0,0,0,0,0,0,0,0,0,0,0,0.205,0.2047,0.1895,0.1894,0.1893,0.1781,0.1779,0.1778,0.1705,0.1704,0.1704,0.1703,0.1586,0.1583,0.1579,0,0,0,0,0,0,0,0,0,0,0,0,0,0.1964,0.2046,0.1896,0.1843,0.1837,0.1781,0.1779,0.1777,0.1705,0.1704,0.1704,0.1703,0.1587,0.1583,0.1579,0.1566,0,0,0.1566,0.1565,0,0,0,0,0,0,0,0,0.1969,0.1958,0.1852,0.1846,0.184,0.1756,0.179,0.1706,0.1705,0.1755,0.1704,0.1703,0.1643,0.1634,0.1614,0.1561,0.1556,0.1566,0.1563,0.1562,0.1561,0,0,0,0,0,0,0,0.1975,0.1962,0.185,0.1851,0.1843,0.1824,0.1811,0.1774,0.1704,0.1751,0.1745,0.1733,0.1639,0.1618,0.161,0.1554,0.1566,0.1562,0.156,0.1558,0.1482,0.1482,0,0,0,0,0,0,0.1989,0.1968,0.1854,0.1846,0.1904,0.1822,0.1807,0.1784,0.1704,0.1691,0.1733,0.173,0.1625,0.1615,0.1606,0.1583,0.1562,0.1558,0.1555,0.1481,0.1482,0.1482,0,0,0,0,0,0,0.1993,0.198,0.1858,0.1906,0.1889,0.182,0.1794,0.1782,0.176,0.1691,0.1678,0.1725,0.1624,0.1612,0.1576,0.1578,0.1556,0.1552,0.1481,0.1481,0.1482,0.154,0,0,0,0,0,0,0.1997,0.1981,0.1976,0.1906,0.1886,0.1831,0.1794,0.178,0.1754,0.1748,0.1679,0.1667,0.1623,0.1583,0.1572,0.1572,0.1549,0.148,0.1481,0.1482,0.1537,0.1542,0.1547,0,0,0,0,0,0.2003,0.1998,0.1977,0.1963,0.1879,0.1831,0.182,0.1769,0.1754,0.1748,0.1703,0.1669,0.158,0.158,0.1567,0.1566,0.148,0.1481,0.1482,0.1535,0.1541,0.1546,0,0,0,0,0,0,0.207,0.1988,0.1963,0.1935,0.1891,0.1819,0.181,0.1778,0.1737,0.1733,0.1672,0.1657,0.1627,0.1593,0.1594,0.1548,0.1526,0.1524,0.1571,0.1576,0.1581,0.1589,0.1546,0,0,0,0,0,0.2082,0.2051,0.198,0.1962,0.1941,0.1879,0.1857,0.1822,0.1773,0.1754,0.1706,0.166,0.1621,0.1597,0.1558,0.1533,0.1515,0.1526,0.153,0.1534,0.1533,0.1515,0.1518,0.1485,0.1485,0.1485,0,0,0.2105,0.2056,0.204,0.1974,0.1935,0.1903,0.1864,0.1833,0.1807,0.1749,0.1712,0.1675,0.162,0.1588,0.1572,0.1559,0.1538,0.1536,0.154,0.1536,0.1516,0.1519,0.1522,0.1486,0.1486,0.1486,0,0,0.213,0.2092,0.207,0.2033,0.1975,0.1934,0.1929,0.1862,0.1835,0.1797,0.1752,0.1721,0.1657,0.1618,0.159,0.16,0.1566,0.1589,0.1612,0.1595,0.1597,0.1599,0.16,0.1602,0.1588,0.1588,0.1588,0,0.2166,0.2117,0.2064,0.2034,0.2005,0.1951,0.1928,0.1894,0.1827,0.1808,0.1794,0.171,0.1669,0.1627,0.1629,0.1609,0.16,0.1595,0.1602,0.1603,0.1604,0.1604,0.1605,0.1591,0.1591,0.1591,0.159,0,0.2162,0.2129,0.2119,0.2054,0.2025,0.1999,0.1941,0.1917,0.1885,0.1845,0.1805,0.1754,0.1702,0.169,0.1658,0.1643,0.1636,0.1613,0.1589,0.1611,0.161,0.161,0.1595,0.1594,0.1593,0.1593,0,0,0.2226,0.2132,0.2129,0.2098,0.203,0.2002,0.1974,0.1923,0.1903,0.1858,0.1831,0.1777,0.1754,0.1723,0.1686,0.1671,0.1679,0.1649,0.1647,0.1655,0.1656,0.1672,0.1673,0.1657,0.1657,0.1657,0.166,0,0.2239,0.2185,0.2136,0.2098,0.2065,0.2013,0.1987,0.1942,0.1904,0.187,0.1828,0.1789,0.1764,0.1744,0.1727,0.1682,0.1678,0.1681,0.163,0.1628,0.1643,0.1673,0.169,0.1695,0.1659,0.1659,0.1659,0,0.2248,0.2204,0.2164,0.2097,0.2081,0.2059,0.2007,0.1976,0.1923,0.1897,0.1861,0.1822,0.1788,0.1769,0.172,0.1723,0.1699,0.1673,0.1672,0.1664,0.1644,0.1663,0.1696,0.1696,0.1659,0.1659,0.1659,0,0.2295,0.2227,0.2192,0.2168,0.209,0.2076,0.2042,0.1989,0.1961,0.1916,0.1897,0.1849,0.1823,0.1786,0.1735,0.1726,0.169,0.1668,0.1665,0.1666,0.1658,0.1659,0.1686,0.1647,0.1647,0.1647,0.1647,0,0.2313,0.229,0.2212,0.2191,0.2163,0.2107,0.208,0.2042,0.1995,0.1965,0.1918,0.189,0.1825,0.179,0.175,0.1714,0.1703,0.1679,0.1668,0.1682,0.1684,0.1664,0.1661,0.1647,0.1647,0.1647,0.1647,0,0.236,0.2308,0.2267,0.2196,0.2178,0.216,0.2099,0.2076,0.2036,0.1998,0.1986,0.1922,0.1877,0.1823,0.1762,0.1734,0.1702,0.1687,0.1719,0.1713,0.1712,0.1712,0.1725,0.1722,0.1688,0.1689,0.1689,0,0.2374,0.2355,0.2282,0.2258,0.2226,0.2189,0.216,0.2104,0.2076,0.2013,0.1998,0.195,0.1908,0.184,0.1787,0.1739,0.1721,0.1729,0.1714,0.1728,0.1719,0.172,0.1716,0.1732,0.1733,0.1734,0.1734,0,0.2404,0.2379,0.2339,0.229,0.2256,0.2215,0.2171,0.2155,0.2089,0.206,0.2014,0.1982,0.1918,0.187,0.1816,0.1781,0.1746,0.174,0.1736,0.1749,0.1767,0.1755,0.1728,0.1739,0.1738,0.1738,0.1738,0.1738,0.2433,0.2412,0.2357,0.2314,0.2275,0.2236,0.221,0.2166,0.2127,0.207,0.204,0.1994,0.194,0.1863,0.183,0.1792,0.178,0.1775,0.1774,0.1773,0.1776,0.1775,0.1782,0.1782,0.1782,0.1782,0.1782,0,0.2458,0.242,0.2381,0.2321,0.2287,0.2258,0.2208,0.2181,0.2141,0.2094,0.2054,0.2,0.1954,0.1898,0.1847,0.1828,0.181,0.1816,0.1816,0.1808,0.1791,0.1798,0.1831,0.1831,0.1831,0.1831,0.1831,0.1831,0.2467,0.243,0.2398,0.2341,0.2302,0.2257,0.2231,0.2193,0.2155,0.2097,0.2058,0.2022,0.1971,0.1916,0.1872,0.1856,0.1839,0.1849,0.1829,0.1814,0.1809,0.1805,0.1811,0.1846,0.1846,0.1848,0.1848,0.1848]}]]